St. Johnsbury, VT

7:09 PM EST on February 18, 2018 (GMT -0500)
St. Johnsbury

Weather History for K1V4 - November, 2010

Change the Weather History Date:

Friday, November 5, 2010

  Actual Average Record
Temperature  
Mean Temperature 40 °F 40 °F  
Max Temperature 44 °F 49 °F 71 °F (2015)
Min Temperature 37 °F 31 °F 16 °F (1951)
Degree Days  
Heating Degree Days 25 25  
Month to date heating degree days 120  
Since 1 July heating degree days 907  
Cooling Degree Days 0 0  
Month to date cooling degree days 0  
Year to date cooling degree days 433  
Moisture  
Dew Point 39 °F    
Average Humidity 95    
Maximum Humidity 100    
Minimum Humidity 89    
Precipitation  
Precipitation 0.69 in 0.11 in 2.17 in (1982)
Month to date precipitation 0.61  
Year to date precipitation 33.63  
Sea Level Pressure  
Sea Level Pressure 29.47 in    
Wind  
Wind Speed - (North)    
Max Wind Speed -    
Max Gust Speed -    
T = Trace of Precipitation, MM = Missing Value Source: NWS Daily Summary

Daily Weather History Graph

Daily Weather History Graph

Search for Another Location

Airport or City:

Trip Planner

Search our weather history database for the weather conditions in past years. The results will help you decide how hot, cold, wet, or windy it might be!

Date:

Astronomy

Nov. 05, 2010 Rise Set
Actual Time 7:30 AM EDT 5:32 PM EDT
Civil Twilight 7:00 AM EDT 6:02 PM EDT
Nautical Twilight 6:25 AM EDT 6:37 PM EDT
Astronomical Twilight 5:51 AM EDT 7:11 PM EDT
Moon 6:53 AM EDT (11/5) 4:50 PM EDT (11/5)
Length of Visible Light 11h 02m
Length of Day
10h 01m
Waning Crescent, 0% of the Moon is Illuminated
Nov 5
Waning Crescent
Nov 6
New
Nov 13
First Quarter
Nov 21
Full
Nov 28
Last Quarter

Hourly Weather History & Observations

Time (EDT) Temp. Dew Point Humidity Pressure Visibility Wind Dir Wind Speed Gust Speed Precip Events Conditions
12:54 AM 39.0 °F 37.9 °F 96% 29.49 in - North - - N/A   Unknown
1:54 AM 39.0 °F 37.9 °F 96% 29.47 in - North - - N/A   Unknown
2:54 AM 37.9 °F 37.0 °F 97% 29.46 in - North - - 0.01 in   Unknown
3:54 AM 37.9 °F 37.0 °F 97% 29.44 in - North - - 0.01 in   Unknown
4:54 AM 37.9 °F 37.0 °F 97% 29.44 in - North - - 0.01 in   Unknown
5:54 AM 37.9 °F 37.0 °F 97% 29.42 in - North - - 0.06 in   Unknown
6:54 AM 37.9 °F 37.0 °F 97% 29.40 in - North - - 0.08 in   Unknown
7:54 AM 37.9 °F 37.9 °F 100% 29.39 in - North - - 0.15 in   Unknown
8:54 AM 37.9 °F 37.9 °F 100% 29.41 in - North - - 0.06 in   Unknown
9:54 AM 39.0 °F 37.9 °F 96% 29.37 in - North - - 0.08 in   Unknown
10:54 AM 39.9 °F 39.0 °F 97% 29.37 in - North - - 0.05 in   Unknown
11:54 AM 41.0 °F 39.9 °F 96% 29.37 in - North - - 0.06 in   Unknown
12:54 PM 42.1 °F 41.0 °F 96% 29.34 in - North - - 0.02 in   Unknown
1:54 PM 43.0 °F 42.1 °F 97% 29.34 in - North - - 0.07 in   Unknown
2:54 PM 43.0 °F 41.0 °F 93% 29.38 in - North - - 0.02 in   Unknown
3:54 PM 43.0 °F 41.0 °F 93% 29.42 in - North - - N/A   Unknown
4:54 PM 43.0 °F 41.0 °F 93% 29.47 in - North - - N/A   Unknown
5:54 PM 43.0 °F 39.9 °F 89% 29.52 in - North - - N/A   Unknown
6:54 PM 42.1 °F 39.9 °F 92% 29.56 in - North - - N/A   Unknown
7:54 PM 42.1 °F 41.0 °F 96% 29.60 in - North - - N/A   Unknown
8:54 PM 41.0 °F 39.9 °F 96% 29.64 in - North - - N/A   Unknown
9:54 PM 41.0 °F 37.9 °F 89% 29.70 in - North - - 0.01 in   Unknown
10:54 PM 39.9 °F 37.0 °F 89% 29.75 in - North - - N/A   Unknown
11:54 PM 39.9 °F 36.0 °F 86% 29.77 in - North - - N/A   Unknown